"read_dt","SO2 (ppb)","flags","PMT voltage (V)","lamp voltage (V)","lamp intensity (Hz)","internal temp (C)","react chamber temp (C)","sample flow (l/min)","pres (mmHg)","SO2 bkg (ppb)","SO2 coefficient"
2015-10-23 00:00:00,1776E-3,5C000400,-0724,0828,12206,028.8,045.4,0.254,757.9,01.16,0.508
2015-10-23 00:01:00,1723E-3,5C000400,-0724,0828,12195,028.8,045.5,0.255,757.9,01.16,0.508
2015-10-23 00:02:00,1724E-3,5C000400,-0724,0827,12271,028.8,045.5,0.255,757.9,01.16,0.508
2015-10-23 00:03:00,1720E-3,5C000400,-0724,0828,12281,028.8,045.4,0.255,757.9,01.16,0.508
2015-10-23 00:04:00,1703E-3,5C000400,-0724,0828,12162,028.8,045.4,0.255,757.9,01.16,0.508
2015-10-23 00:05:00,1670E-3,5C000400,-0724,0828,12261,028.8,045.4,0.255,757.9,01.16,0.508
2015-10-23 00:06:00,1761E-3,5C000400,-0724,0828,12287,028.8,045.5,0.255,757.9,01.16,0.508
2015-10-23 00:07:00,1807E-3,5C000400,-0724,0828,12235,028.8,045.4,0.255,757.8,01.16,0.508
2015-10-23 00:08:00,1764E-3,5C000400,-0724,0827,12251,028.8,045.4,0.255,757.8,01.16,0.508
2015-10-23 00:09:00,1649E-3,5C000400,-0724,0828,12078,028.8,045.5,0.255,757.8,01.16,0.508
2015-10-23 00:10:00,1708E-3,5C000400,-0724,0828,12158,028.8,045.4,0.254,757.8,01.16,0.508
2015-10-23 00:11:00,1789E-3,5C000400,-0724,0829,12200,028.8,045.5,0.255,757.8,01.16,0.508
2015-10-23 00:12:00,1672E-3,5C000400,-0724,0829,11984,028.8,045.5,0.255,757.8,01.16,0.508
2015-10-23 00:13:00,1807E-3,5C000400,-0724,0828,12249,028.8,045.5,0.255,757.8,01.16,0.508
2015-10-23 00:14:00,1764E-3,5C000400,-0724,0828,12276,028.7,045.4,0.255,757.9,01.16,0.508
2015-10-23 00:15:00,1760E-3,5C000400,-0724,0827,12221,028.8,045.5,0.255,757.9,01.16,0.508
2015-10-23 00:16:00,1744E-3,5C000400,-0724,0828,12213,028.7,045.5,0.255,757.9,01.16,0.508
2015-10-23 00:17:00,1880E-3,5C000400,-0724,0828,12307,028.8,045.5,0.255,757.9,01.16,0.508
2015-10-23 00:18:00,1847E-3,5C000400,-0724,0828,12256,028.8,045.5,0.255,757.9,01.16,0.508
2015-10-23 00:19:00,1893E-3,5C000400,-0724,0829,12192,028.7,045.5,0.254,757.8,01.16,0.508
2015-10-23 00:20:00,1730E-3,5C000400,-0724,0828,12331,028.8,045.5,0.255,757.8,01.16,0.508
2015-10-23 00:21:00,1717E-3,5C000400,-0724,0828,12264,028.8,045.4,0.255,757.8,01.16,0.508
2015-10-23 00:22:00,1682E-3,5C000400,-0724,0828,12186,028.7,045.4,0.255,757.8,01.16,0.508
2015-10-23 00:23:00,1775E-3,5C000400,-0724,0828,12304,028.7,045.4,0.255,757.8,01.16,0.508
2015-10-23 00:24:00,1803E-3,5C000400,-0724,0828,12212,028.7,045.5,0.255,757.9,01.16,0.508
2015-10-23 00:25:00,1732E-3,5C000400,-0724,0828,12088,028.7,045.5,0.255,757.8,01.16,0.508
2015-10-23 00:26:00,1682E-3,5C000400,-0724,0828,12196,028.7,045.4,0.255,757.9,01.16,0.508
2015-10-23 00:27:00,1706E-3,5C000400,-0724,0827,12224,028.8,045.4,0.255,757.9,01.16,0.508
2015-10-23 00:28:00,1668E-3,5C000400,-0724,0829,12317,028.8,045.4,0.255,757.9,01.16,0.508
2015-10-23 00:29:00,1830E-3,5C000400,-0724,0828,12154,028.7,045.5,0.255,757.9,01.16,0.508
2015-10-23 00:30:00,1784E-3,5C000400,-0724,0828,12215,028.7,045.5,0.255,757.8,01.16,0.508
2015-10-23 00:31:00,1668E-3,5C000400,-0724,0828,12183,028.7,045.4,0.255,757.9,01.16,0.508
2015-10-23 00:32:00,1723E-3,5C000400,-0724,0828,12178,028.7,045.4,0.255,757.8,01.16,0.508
2015-10-23 00:33:00,1745E-3,5C000400,-0724,0828,12271,028.7,045.4,0.255,757.8,01.16,0.508
2015-10-23 00:34:00,1632E-3,5C000400,-0724,0828,12067,028.7,045.4,0.255,757.9,01.16,0.508
2015-10-23 00:35:00,1707E-3,5C000400,-0724,0828,12179,028.7,045.5,0.255,757.9,01.16,0.508
2015-10-23 00:36:00,1951E-3,5C000400,-0724,0829,12246,028.7,045.4,0.255,757.9,01.16,0.508
2015-10-23 00:37:00,1716E-3,5C000400,-0724,0828,12172,028.7,045.5,0.255,757.9,01.16,0.508
2015-10-23 00:38:00,1699E-3,5C000400,-0724,0827,12234,028.7,045.5,0.255,757.9,01.16,0.508
2015-10-23 00:39:00,1707E-3,5C000400,-0724,0828,12280,028.7,045.5,0.255,757.9,01.16,0.508
2015-10-23 00:40:00,1591E-3,5C000400,-0724,0827,12072,028.7,045.4,0.255,757.9,01.16,0.508
2015-10-23 00:41:00,1793E-3,5C000400,-0724,0828,12263,028.7,045.5,0.255,757.8,01.16,0.508
2015-10-23 00:42:00,1770E-3,5C000400,-0724,0828,12216,028.7,045.4,0.255,757.9,01.16,0.508
2015-10-23 00:43:00,1886E-3,5C000400,-0724,0828,12270,028.7,045.4,0.255,757.8,01.16,0.508
2015-10-23 00:44:00,1725E-3,5C000400,-0724,0828,12181,028.7,045.5,0.255,757.8,01.16,0.508
2015-10-23 00:45:00,1661E-3,5C000400,-0724,0828,12245,028.7,045.4,0.255,757.8,01.16,0.508
2015-10-23 00:46:00,1783E-3,5C000400,-0724,0828,12179,028.6,045.4,0.255,757.8,01.16,0.508
2015-10-23 00:47:00,1720E-3,5C000400,-0724,0828,12173,028.6,045.4,0.255,757.8,01.16,0.508
2015-10-23 00:48:00,1746E-3,5C000400,-0724,0828,12191,028.7,045.5,0.255,757.8,01.16,0.508
2015-10-23 00:49:00,1816E-3,5C000400,-0724,0828,12142,028.7,045.4,0.255,757.7,01.16,0.508
2015-10-23 00:50:00,1731E-3,5C000400,-0724,0828,12184,028.6,045.4,0.255,757.7,01.16,0.508
2015-10-23 00:51:00,1678E-3,5C000400,-0724,0828,12202,028.7,045.4,0.255,757.7,01.16,0.508
2015-10-23 00:52:00,1791E-3,5C000400,-0724,0828,12167,028.7,045.4,0.255,757.7,01.16,0.508
2015-10-23 00:53:00,1710E-3,5C000400,-0724,0829,12233,028.7,045.5,0.255,757.7,01.16,0.508
2015-10-23 00:54:00,1760E-3,5C000400,-0724,0828,12153,028.6,045.4,0.255,757.7,01.16,0.508
2015-10-23 00:55:00,1801E-3,5C000400,-0724,0828,12322,028.6,045.5,0.255,757.7,01.16,0.508
2015-10-23 00:56:00,1800E-3,5C000400,-0724,0828,12221,028.7,045.4,0.255,757.7,01.16,0.508
2015-10-23 00:57:00,1694E-3,5C000400,-0724,0828,12096,028.6,045.4,0.255,757.7,01.16,0.508
2015-10-23 00:58:00,1692E-3,5C000400,-0724,0828,12289,028.7,045.5,0.255,757.7,01.16,0.508
2015-10-23 00:59:00,1739E-3,5C000400,-0724,0827,12189,028.7,045.4,0.255,757.7,01.16,0.508
2015-10-23 01:00:00,1787E-3,5C000400,-0724,0827,12138,028.7,045.4,0.255,757.7,01.16,0.508
2015-10-23 01:01:00,1813E-3,5C000400,-0724,0827,12212,028.7,045.4,0.255,757.7,01.16,0.508
2015-10-23 01:02:00,1643E-3,5C000400,-0724,0829,12179,028.7,045.4,0.255,757.7,01.16,0.508
2015-10-23 01:03:00,1783E-3,5C000400,-0724,0828,12238,028.7,045.4,0.255,757.7,01.16,0.508
2015-10-23 01:04:00,1685E-3,5C000400,-0724,0828,12282,028.7,045.5,0.255,757.7,01.16,0.508
2015-10-23 01:05:00,1812E-3,5C000400,-0724,0828,12134,028.7,045.5,0.255,757.7,01.16,0.508
2015-10-23 01:06:00,1737E-3,5C000400,-0724,0827,12339,028.7,045.5,0.255,757.7,01.16,0.508
2015-10-23 01:07:00,1591E-3,5C000400,-0724,0827,12087,028.7,045.4,0.255,757.7,01.16,0.508
2015-10-23 01:08:00,1706E-3,5C000400,-0724,0828,12066,028.7,045.4,0.255,757.8,01.16,0.508
2015-10-23 01:09:00,1829E-3,5C000400,-0724,0828,12294,028.7,045.4,0.255,757.8,01.16,0.508
2015-10-23 01:10:00,1763E-3,5C000400,-0724,0828,12081,028.7,045.4,0.255,757.8,01.16,0.508
2015-10-23 01:11:00,1784E-3,5C000400,-0724,0828,12251,028.7,045.4,0.255,757.8,01.16,0.508
2015-10-23 01:12:00,1787E-3,5C000400,-0724,0828,12301,028.7,045.4,0.255,757.8,01.16,0.508
2015-10-23 01:13:00,1824E-3,5C000400,-0724,0829,12298,028.7,045.5,0.255,757.8,01.16,0.508
2015-10-23 01:14:00,1631E-3,5C000400,-0724,0828,12158,028.7,045.5,0.255,757.8,01.16,0.508
2015-10-23 01:15:00,1713E-3,5C000400,-0724,0828,12229,028.7,045.4,0.255,757.8,01.16,0.508
2015-10-23 01:16:00,1882E-3,5C000400,-0724,0829,12300,028.8,045.4,0.255,757.8,01.16,0.508
2015-10-23 01:17:00,1705E-3,5C000400,-0724,0828,12189,028.7,045.5,0.255,757.7,01.16,0.508
2015-10-23 01:18:00,1715E-3,5C000400,-0724,0828,12180,028.7,045.4,0.255,757.7,01.16,0.508
2015-10-23 01:19:00,1745E-3,5C000400,-0724,0829,12228,028.7,045.4,0.255,757.7,01.16,0.508
2015-10-23 01:20:00,1620E-3,5C000400,-0724,0828,12252,028.8,045.5,0.255,757.7,01.16,0.508
2015-10-23 01:21:00,1798E-3,5C000400,-0724,0829,12347,028.7,045.5,0.255,757.7,01.16,0.508
2015-10-23 01:22:00,1835E-3,5C000400,-0724,0828,12185,028.7,045.5,0.255,757.7,01.16,0.508
2015-10-23 01:23:00,1838E-3,5C000400,-0724,0828,12266,028.8,045.5,0.255,757.8,01.16,0.508
2015-10-23 01:24:00,1888E-3,5C000400,-0724,0828,12203,028.7,045.5,0.255,757.8,01.16,0.508
2015-10-23 01:25:00,1631E-3,5C000400,-0724,0828,12379,028.8,045.5,0.255,757.8,01.16,0.508
2015-10-23 01:26:00,1632E-3,5C000400,-0724,0828,12050,028.7,045.4,0.255,757.8,01.16,0.508
2015-10-23 01:27:00,1781E-3,5C000400,-0724,0828,12287,028.8,045.4,0.255,757.8,01.16,0.508
2015-10-23 01:28:00,1762E-3,5C000400,-0724,0828,11992,028.8,045.4,0.255,757.8,01.16,0.508
2015-10-23 01:29:00,1730E-3,5C000400,-0724,0828,12171,028.8,045.4,0.255,757.8,01.16,0.508
2015-10-23 01:30:00,1741E-3,5C000400,-0724,0828,12332,028.8,045.4,0.255,757.8,01.16,0.508
2015-10-23 01:31:00,1724E-3,5C000400,-0724,0828,12300,028.8,045.4,0.255,757.8,01.16,0.508
2015-10-23 01:32:00,1780E-3,5C000400,-0724,0828,12249,028.8,045.5,0.255,757.8,01.16,0.508
2015-10-23 01:33:00,1823E-3,5C000400,-0724,0828,12237,028.8,045.5,0.255,757.8,01.16,0.508
2015-10-23 01:34:00,1777E-3,5C000400,-0724,0828,12187,028.8,045.5,0.255,757.8,01.16,0.508
2015-10-23 01:35:00,1793E-3,5C000400,-0724,0828,12221,028.8,045.5,0.254,757.8,01.16,0.508
2015-10-23 01:36:00,1885E-3,5C000400,-0724,0828,12215,028.8,045.4,0.255,757.8,01.16,0.508
2015-10-23 01:37:00,1690E-3,5C000400,-0724,0829,12138,028.8,045.5,0.255,757.8,01.16,0.508
2015-10-23 01:38:00,1775E-3,5C000400,-0724,0828,12166,028.8,045.5,0.255,757.8,01.16,0.508
2015-10-23 01:39:00,1688E-3,5C000400,-0724,0829,12079,028.8,045.4,0.255,757.8,01.16,0.508
2015-10-23 01:40:00,1789E-3,5C000400,-0724,0829,12282,028.8,045.4,0.255,757.9,01.16,0.508
2015-10-23 01:41:00,1720E-3,5C000400,-0724,0828,12167,028.8,045.5,0.255,757.8,01.16,0.508
2015-10-23 01:42:00,1818E-3,5C000400,-0724,0829,12232,028.8,045.5,0.255,757.9,01.16,0.508
2015-10-23 01:43:00,1771E-3,5C000400,-0724,0828,12168,028.8,045.4,0.255,757.8,01.16,0.508
2015-10-23 01:44:00,1791E-3,5C000400,-0724,0828,12196,028.8,045.5,0.255,757.8,01.16,0.508
2015-10-23 01:45:00,1800E-3,5C000400,-0724,0828,12236,028.8,045.4,0.255,757.8,01.16,0.508
2015-10-23 01:46:00,1800E-3,5C000400,-0724,0829,12242,028.8,045.4,0.255,757.8,01.16,0.508
2015-10-23 01:47:00,1780E-3,5C000400,-0724,0828,12178,028.8,045.5,0.255,757.8,01.16,0.508
2015-10-23 01:48:00,1730E-3,5C000400,-0724,0828,12147,028.8,045.4,0.255,757.8,01.16,0.508
2015-10-23 01:49:00,1821E-3,5C000400,-0724,0828,12232,028.8,045.5,0.255,757.8,01.16,0.508
2015-10-23 01:50:00,1627E-3,5C000400,-0724,0828,12129,028.8,045.5,0.255,757.8,01.16,0.508
2015-10-23 01:51:00,1779E-3,5C000400,-0724,0829,12235,028.8,045.5,0.255,757.8,01.16,0.508
2015-10-23 01:52:00,1713E-3,5C000400,-0724,0828,12051,028.8,045.5,0.255,757.8,01.16,0.508
2015-10-23 01:53:00,1772E-3,5C000400,-0724,0828,12273,028.8,045.5,0.255,757.8,01.16,0.508
2015-10-23 01:54:00,1660E-3,5C000400,-0724,0828,12288,028.8,045.5,0.254,757.8,01.16,0.508
2015-10-23 01:55:00,1599E-3,5C000400,-0724,0829,12182,028.8,045.5,0.254,757.8,01.16,0.508
2015-10-23 01:56:00,1762E-3,5C000400,-0724,0829,12184,028.8,045.4,0.255,757.8,01.16,0.508
2015-10-23 01:57:00,1610E-3,5C000400,-0724,0829,12190,028.8,045.5,0.255,757.8,01.16,0.508
2015-10-23 01:58:00,1733E-3,5C000400,-0724,0829,12236,028.8,045.5,0.255,757.8,01.16,0.508
2015-10-23 01:59:00,1800E-3,5C000400,-0724,0828,12222,028.8,045.5,0.255,757.8,01.16,0.508
2015-10-23 02:00:00,1808E-3,5C000400,-0724,0828,12145,028.8,045.5,0.255,757.8,01.16,0.508
2015-10-23 02:01:00,1864E-3,5C000400,-0724,0828,12249,028.8,045.5,0.255,757.8,01.16,0.508
2015-10-23 02:02:00,1661E-3,5C000400,-0724,0828,12129,028.8,045.5,0.255,757.8,01.16,0.508
2015-10-23 02:03:00,1705E-3,5C000400,-0724,0828,12205,028.8,045.5,0.255,757.8,01.16,0.508
2015-10-23 02:04:00,1776E-3,5C000400,-0724,0828,12294,028.8,045.4,0.255,757.8,01.16,0.508
2015-10-23 02:05:00,1811E-3,5C000400,-0724,0828,12234,028.8,045.5,0.255,757.8,01.16,0.508
2015-10-23 02:06:00,1723E-3,5C000400,-0724,0829,12221,028.8,045.5,0.254,757.8,01.16,0.508
2015-10-23 02:07:00,1539E-3,5C000400,-0724,0828,12219,028.9,045.4,0.255,757.8,01.16,0.508
2015-10-23 02:08:00,1722E-3,5C000400,-0724,0829,12187,028.9,045.5,0.255,757.8,01.16,0.508
2015-10-23 02:09:00,1671E-3,5C000400,-0724,0828,12047,028.9,045.5,0.255,757.8,01.16,0.508
2015-10-23 02:10:00,1635E-3,5C000400,-0724,0828,12189,028.9,045.5,0.255,757.8,01.16,0.508
2015-10-23 02:11:00,1805E-3,5C000400,-0724,0828,12201,028.9,045.4,0.255,757.8,01.16,0.508
2015-10-23 02:12:00,1698E-3,5C000400,-0724,0828,12166,028.8,045.5,0.255,757.8,01.16,0.508
2015-10-23 02:13:00,1699E-3,5C000400,-0724,0827,12262,028.9,045.5,0.255,757.8,01.16,0.508
2015-10-23 02:14:00,1786E-3,5C000400,-0724,0828,12244,028.9,045.5,0.254,757.8,01.16,0.508
2015-10-23 02:15:00,1862E-3,5C000400,-0724,0829,12159,028.9,045.5,0.254,757.8,01.16,0.508
2015-10-23 02:16:00,1727E-3,5C000400,-0724,0829,12322,028.9,045.4,0.255,757.8,01.16,0.508
2015-10-23 02:17:00,1631E-3,5C000400,-0724,0828,12188,028.9,045.5,0.255,757.8,01.16,0.508
2015-10-23 02:18:00,1571E-3,5C000400,-0724,0828,12090,028.9,045.4,0.255,757.8,01.16,0.508
2015-10-23 02:19:00,1671E-3,5C000400,-0724,0828,12105,028.9,045.5,0.255,757.8,01.16,0.508
2015-10-23 02:20:00,1666E-3,5C000400,-0724,0828,12135,028.9,045.4,0.255,757.8,01.16,0.508
2015-10-23 02:21:00,1726E-3,5C000400,-0724,0828,12166,028.9,045.4,0.255,757.8,01.16,0.508
2015-10-23 02:22:00,1678E-3,5C000400,-0724,0828,12206,028.9,045.5,0.255,757.8,01.16,0.508
2015-10-23 02:23:00,1763E-3,5C000400,-0724,0828,12142,028.9,045.5,0.255,757.8,01.16,0.508
2015-10-23 02:24:00,1761E-3,5C000400,-0724,0828,12112,028.9,045.5,0.255,757.8,01.16,0.508
2015-10-23 02:25:00,1714E-3,5C000400,-0724,0828,12283,028.9,045.5,0.255,757.9,01.16,0.508
2015-10-23 02:26:00,1806E-3,5C000400,-0724,0829,12225,028.9,045.5,0.255,757.9,01.16,0.508
2015-10-23 02:27:00,1793E-3,5C000400,-0724,0828,12187,028.9,045.4,0.255,757.8,01.16,0.508
2015-10-23 02:28:00,1804E-3,5C000400,-0724,0829,12104,028.9,045.5,0.254,757.8,01.16,0.508
2015-10-23 02:29:00,1674E-3,5C000400,-0724,0829,12203,028.9,045.5,0.255,757.8,01.16,0.508
2015-10-23 02:30:00,1669E-3,5C000400,-0724,0828,12284,028.9,045.5,0.255,757.8,01.16,0.508
2015-10-23 02:31:00,1689E-3,5C000400,-0724,0829,12177,028.9,045.5,0.255,757.8,01.16,0.508
2015-10-23 02:32:00,1725E-3,5C000400,-0724,0828,12313,028.9,045.5,0.255,757.8,01.16,0.508
2015-10-23 02:33:00,1745E-3,5C000400,-0724,0829,12244,028.9,045.5,0.255,757.8,01.16,0.508
2015-10-23 02:34:00,1697E-3,5C000400,-0724,0828,12337,028.9,045.5,0.255,757.8,01.16,0.508
2015-10-23 02:35:00,1899E-3,5C000400,-0724,0828,12290,028.9,045.5,0.254,757.8,01.16,0.508
2015-10-23 02:36:00,1783E-3,5C000400,-0724,0828,12244,029.0,045.5,0.254,757.8,01.16,0.508
2015-10-23 02:37:00,1776E-3,5C000400,-0724,0828,12086,028.9,045.5,0.255,757.8,01.16,0.508
2015-10-23 02:38:00,1747E-3,5C000400,-0724,0829,12166,028.9,045.5,0.255,757.7,01.16,0.508
2015-10-23 02:39:00,1824E-3,5C000400,-0724,0828,12224,029.0,045.5,0.255,757.8,01.16,0.508
2015-10-23 02:40:00,1706E-3,5C000400,-0724,0829,12225,029.0,045.4,0.255,757.8,01.16,0.508
2015-10-23 02:41:00,1718E-3,5C000400,-0724,0828,12287,029.0,045.5,0.255,757.8,01.16,0.508
2015-10-23 02:42:00,1658E-3,5C000400,-0724,0829,12290,029.0,045.4,0.255,757.8,01.16,0.508
2015-10-23 02:43:00,1870E-3,5C000400,-0724,0828,12169,028.9,045.4,0.254,757.8,01.16,0.508
2015-10-23 02:44:00,1746E-3,5C000400,-0724,0829,12113,029.0,045.4,0.254,757.8,01.16,0.508
2015-10-23 02:45:00,1725E-3,5C000400,-0724,0829,12239,029.0,045.4,0.255,757.7,01.16,0.508
2015-10-23 02:46:00,1790E-3,5C000400,-0724,0828,12275,029.0,045.4,0.255,757.7,01.16,0.508
2015-10-23 02:47:00,1669E-3,5C000400,-0724,0828,12194,028.9,045.5,0.255,757.7,01.16,0.508
2015-10-23 02:48:00,1811E-3,5C000400,-0724,0828,12214,029.0,045.5,0.255,757.7,01.16,0.508
2015-10-23 02:49:00,1846E-3,5C000400,-0724,0828,12284,029.0,045.5,0.254,757.7,01.16,0.508
2015-10-23 02:50:00,1865E-3,5C000400,-0724,0829,11980,029.0,045.4,0.254,757.7,01.16,0.508
2015-10-23 02:51:00,1774E-3,5C000400,-0724,0829,12190,029.0,045.5,0.254,757.7,01.16,0.508
2015-10-23 02:52:00,1611E-3,5C000400,-0724,0829,12164,029.0,045.5,0.255,757.7,01.16,0.508
2015-10-23 02:53:00,1702E-3,5C000400,-0724,0828,12175,029.0,045.5,0.255,757.8,01.16,0.508
2015-10-23 02:54:00,1739E-3,5C000400,-0724,0829,12208,029.0,045.5,0.255,757.8,01.16,0.508
2015-10-23 02:55:00,1736E-3,5C000400,-0724,0828,12369,029.0,045.5,0.255,757.8,01.16,0.508
2015-10-23 02:56:00,1742E-3,5C000400,-0724,0828,12192,029.0,045.5,0.255,757.8,01.16,0.508
2015-10-23 02:57:00,1789E-3,5C000400,-0724,0828,12081,029.0,045.5,0.255,757.7,01.16,0.508
2015-10-23 02:58:00,1755E-3,5C000400,-0724,0828,12147,029.0,045.5,0.254,757.8,01.16,0.508
2015-10-23 02:59:00,1781E-3,5C000400,-0724,0829,12169,029.0,045.5,0.254,757.8,01.16,0.508
2015-10-23 03:00:00,1643E-3,5C000400,-0724,0828,12212,029.0,045.5,0.254,757.8,01.16,0.508
2015-10-23 03:01:00,1716E-3,5C000400,-0724,0829,12256,029.0,045.5,0.255,757.8,01.16,0.508
2015-10-23 03:02:00,1647E-3,5C000400,-0724,0828,12244,029.0,045.5,0.255,757.8,01.16,0.508
2015-10-23 03:03:00,1792E-3,5C000400,-0724,0828,12263,029.0,045.5,0.255,757.8,01.16,0.508
2015-10-23 03:04:00,1628E-3,5C000400,-0724,0828,12385,029.1,045.5,0.255,757.8,01.16,0.508
2015-10-23 03:05:00,1644E-3,5C000400,-0724,0828,12310,029.1,045.5,0.254,757.8,01.16,0.508
2015-10-23 03:06:00,1671E-3,5C000400,-0724,0829,12315,029.1,045.4,0.254,757.9,01.16,0.508
2015-10-23 03:07:00,1727E-3,5C000400,-0724,0829,12273,029.0,045.5,0.254,757.9,01.16,0.508
2015-10-23 03:08:00,1761E-3,5C000400,-0724,0829,12152,029.1,045.4,0.254,757.9,01.16,0.508
2015-10-23 03:09:00,1795E-3,5C000400,-0724,0830,12197,029.0,045.5,0.254,757.9,01.16,0.508
2015-10-23 03:10:00,1733E-3,5C000400,-0724,0828,12227,029.1,045.5,0.255,757.8,01.16,0.508
2015-10-23 03:11:00,1741E-3,5C000400,-0724,0828,12316,029.1,045.5,0.255,757.8,01.16,0.508
2015-10-23 03:12:00,1887E-3,5C000400,-0724,0829,12326,029.1,045.4,0.254,757.8,01.16,0.508
2015-10-23 03:13:00,1624E-3,5C000400,-0724,0829,12311,029.1,045.4,0.254,757.8,01.16,0.508
2015-10-23 03:14:00,1682E-3,5C000400,-0724,0828,12289,029.1,045.5,0.254,757.8,01.16,0.508
2015-10-23 03:15:00,1817E-3,5C000400,-0724,0828,12094,029.1,045.5,0.254,757.8,01.16,0.508
2015-10-23 03:16:00,1718E-3,5C000400,-0724,0829,12244,029.1,045.5,0.254,757.8,01.16,0.508
2015-10-23 03:17:00,1715E-3,5C000400,-0724,0829,12183,029.1,045.4,0.254,757.8,01.16,0.508
2015-10-23 03:18:00,1674E-3,5C000400,-0724,0829,12213,029.1,045.4,0.255,757.8,01.16,0.508
2015-10-23 03:19:00,1784E-3,5C000400,-0724,0828,12318,029.1,045.5,0.255,757.8,01.16,0.508
2015-10-23 03:20:00,1807E-3,5C000400,-0724,0829,12214,029.1,045.5,0.254,757.8,01.16,0.508
2015-10-23 03:21:00,1776E-3,5C000400,-0724,0827,12062,029.1,045.5,0.254,757.8,01.16,0.508
2015-10-23 03:22:00,1736E-3,5C000400,-0724,0828,12277,029.1,045.5,0.254,757.8,01.16,0.508
2015-10-23 03:23:00,1792E-3,5C000400,-0724,0829,12252,029.1,045.5,0.254,757.8,01.16,0.508
2015-10-23 03:24:00,1870E-3,5C000400,-0724,0829,12273,029.1,045.5,0.254,757.8,01.16,0.508
2015-10-23 03:25:00,1659E-3,5C000400,-0724,0829,12356,029.1,045.5,0.254,757.8,01.16,0.508
2015-10-23 03:26:00,1710E-3,5C000400,-0724,0828,12269,029.1,045.5,0.254,757.8,01.16,0.508
2015-10-23 03:27:00,1694E-3,5C000400,-0724,0829,12240,029.1,045.5,0.255,757.8,01.16,0.508
2015-10-23 03:28:00,1733E-3,5C000400,-0724,0829,12325,029.1,045.4,0.254,757.8,01.16,0.508
2015-10-23 03:29:00,1734E-3,5C000400,-0724,0829,12222,029.2,045.4,0.254,757.8,01.16,0.508
2015-10-23 03:30:00,1721E-3,5C000400,-0724,0829,12200,029.2,045.5,0.254,757.8,01.16,0.508
2015-10-23 03:31:00,1704E-3,5C000400,-0724,0829,12101,029.1,045.5,0.254,757.8,01.16,0.508
2015-10-23 03:32:00,1671E-3,5C000400,-0724,0828,12073,029.2,045.5,0.254,757.8,01.16,0.508
2015-10-23 03:33:00,1778E-3,5C000400,-0724,0828,12393,029.2,045.5,0.254,757.7,01.16,0.508
2015-10-23 03:34:00,1691E-3,5C000400,-0724,0829,12156,029.2,045.5,0.254,757.8,01.16,0.508
2015-10-23 03:35:00,1593E-3,5C000400,-0724,0829,12165,029.2,045.4,0.254,757.7,01.16,0.508
2015-10-23 03:36:00,1675E-3,5C000400,-0724,0829,12249,029.2,045.5,0.254,757.7,01.16,0.508
2015-10-23 03:37:00,1762E-3,5C000400,-0724,0829,12190,029.2,045.5,0.254,757.7,01.16,0.508
2015-10-23 03:38:00,1743E-3,5C000400,-0724,0829,12228,029.2,045.5,0.254,757.7,01.16,0.508
2015-10-23 03:39:00,1781E-3,5C000400,-0724,0828,12178,029.2,045.5,0.254,757.7,01.16,0.508
2015-10-23 03:40:00,1834E-3,5C000400,-0724,0828,12195,029.2,045.5,0.254,757.7,01.16,0.508
2015-10-23 03:41:00,1675E-3,5C000400,-0724,0829,12183,029.2,045.5,0.254,757.7,01.16,0.508
2015-10-23 03:42:00,1606E-3,5C000400,-0724,0828,12046,029.2,045.5,0.254,757.7,01.16,0.508
2015-10-23 03:43:00,1772E-3,5C000400,-0724,0828,12183,029.2,045.5,0.254,757.7,01.16,0.508
2015-10-23 03:44:00,1863E-3,5C000400,-0724,0829,12176,029.2,045.5,0.254,757.7,01.16,0.508
2015-10-23 03:45:00,1910E-3,5C000400,-0724,0829,12203,029.2,045.5,0.254,757.7,01.16,0.508
2015-10-23 03:46:00,1842E-3,5C000400,-0724,0828,12259,029.2,045.4,0.254,757.7,01.16,0.508
2015-10-23 03:47:00,1731E-3,5C000400,-0724,0828,12175,029.2,045.5,0.254,757.7,01.16,0.508
2015-10-23 03:48:00,1808E-3,5C000400,-0724,0829,12178,029.2,045.5,0.254,757.7,01.16,0.508
2015-10-23 03:49:00,1598E-3,5C000400,-0724,0829,12134,029.2,045.5,0.254,757.7,01.16,0.508
2015-10-23 03:50:00,1749E-3,5C000400,-0724,0829,12245,029.2,045.5,0.254,757.7,01.16,0.508
2015-10-23 03:51:00,1734E-3,5C000400,-0724,0829,12314,029.2,045.4,0.254,757.7,01.16,0.508
2015-10-23 03:52:00,1825E-3,5C000400,-0724,0828,12279,029.3,045.5,0.254,757.7,01.16,0.508
2015-10-23 03:53:00,1791E-3,5C000400,-0724,0829,12262,029.3,045.5,0.254,757.7,01.16,0.508
2015-10-23 03:54:00,1755E-3,5C000400,-0724,0829,12046,029.3,045.5,0.254,757.7,01.16,0.508
2015-10-23 03:55:00,1656E-3,5C000400,-0724,0828,12241,029.3,045.5,0.254,757.7,01.16,0.508
2015-10-23 03:56:00,1654E-3,5C000400,-0724,0829,12303,029.3,045.4,0.254,757.7,01.16,0.508
2015-10-23 03:57:00,1753E-3,5C000400,-0724,0829,12131,029.3,045.5,0.254,757.7,01.16,0.508
2015-10-23 03:58:00,1757E-3,5C000400,-0724,0829,12305,029.3,045.5,0.254,757.7,01.16,0.508
2015-10-23 03:59:00,1799E-3,5C000400,-0724,0829,12104,029.3,045.5,0.254,757.7,01.16,0.508
2015-10-23 04:00:00,1763E-3,5C000400,-0724,0829,12217,029.3,045.5,0.254,757.7,01.16,0.508
2015-10-23 04:01:00,1753E-3,5C000400,-0724,0828,12284,029.3,045.5,0.254,757.7,01.16,0.508
2015-10-23 04:02:00,1594E-3,5C000400,-0724,0829,12143,029.3,045.5,0.254,757.7,01.16,0.508
2015-10-23 04:03:00,1680E-3,5C000400,-0724,0829,12227,029.4,045.5,0.254,757.7,01.16,0.508
2015-10-23 04:04:00,1719E-3,5C000400,-0724,0829,12141,029.3,045.5,0.254,757.7,01.16,0.508
2015-10-23 04:05:00,1683E-3,5C000400,-0724,0828,12332,029.4,045.5,0.254,757.7,01.16,0.508
2015-10-23 04:06:00,1796E-3,5C000400,-0724,0828,12192,029.3,045.5,0.254,757.7,01.16,0.508
2015-10-23 04:07:00,1877E-3,5C000400,-0724,0829,12304,029.4,045.5,0.254,757.7,01.16,0.508
2015-10-23 04:08:00,1679E-3,5C000400,-0724,0830,12152,029.4,045.5,0.254,757.8,01.16,0.508
2015-10-23 04:09:00,1835E-3,5C000400,-0724,0828,12226,029.4,045.5,0.254,757.8,01.16,0.508
2015-10-23 04:10:00,1730E-3,5C000400,-0724,0829,12289,029.4,045.5,0.254,757.7,01.16,0.508
2015-10-23 04:11:00,1895E-3,5C000400,-0724,0829,12290,029.4,045.5,0.253,757.7,01.16,0.508
2015-10-23 04:12:00,1759E-3,5C000400,-0724,0828,12218,029.4,045.5,0.254,757.7,01.16,0.508
2015-10-23 04:13:00,1759E-3,5C000400,-0724,0829,12133,029.4,045.5,0.254,757.7,01.16,0.508
2015-10-23 04:14:00,1762E-3,5C000400,-0724,0829,12267,029.4,045.5,0.254,757.7,01.16,0.508
2015-10-23 04:15:00,1908E-3,5C000400,-0724,0828,12199,029.5,045.5,0.254,757.7,01.16,0.508
2015-10-23 04:16:00,1787E-3,5C000400,-0724,0828,12240,029.5,045.5,0.254,757.7,01.16,0.508
2015-10-23 04:17:00,1739E-3,5C000400,-0724,0828,12114,029.5,045.5,0.254,757.7,01.16,0.508
2015-10-23 04:18:00,1646E-3,5C000400,-0724,0830,12107,029.5,045.4,0.254,757.7,01.16,0.508
2015-10-23 04:19:00,1663E-3,5C000400,-0724,0829,12016,029.5,045.5,0.254,757.7,01.16,0.508
2015-10-23 04:20:00,1807E-3,5C000400,-0724,0829,12292,029.5,045.5,0.254,757.7,01.16,0.508